OE2ATN Weather Reports


time (UTC)temp
C
wind
direction
speed
KPH
gust
KPH
rain 1hr
cm
rain 24hr
cm
rain mn
cm
humidity
%
barometer
mb
20260506112527 20 110 1.6 19.3 0.00 0.00 0.00 39 1012.4
20260506112025 20 96 9.7 22.5 0.00 0.00 0.00 44 1012.5
20260506111525 20 90 12.9 22.5 0.00 0.00 0.00 42 1012.5
20260506111025 20 114 6.4 17.7 0.00 0.00 0.00 45 1012.5
20260506110526 19 124 11.3 17.7 0.00 0.00 0.00 41 1012.6
20260506110026 19 133 4.8 16.1 0.00 0.00 0.00 46 1012.8
20260506105527 19 113 6.4 19.3 0.00 0.00 0.00 40 1012.9
20260506105025 19 104 6.4 19.3 0.00 0.00 0.00 42 1012.9
20260506104526 20 118 9.7 22.5 0.00 0.00 0.00 40 1012.8
20260506104026 20 110 14.5 22.5 0.00 0.00 0.00 41 1013.0
20260506103525 20 86 4.8 14.5 0.00 0.00 0.00 41 1013.1
20260506103025 20 111 6.4 17.7 0.00 0.00 0.00 44 1013.2
20260506102524 19 92 6.4 17.7 0.00 0.00 0.00 43 1013.3
20260506102024 19 102 8.0 19.3 0.00 0.00 0.00 43 1013.3
20260506101525 19 92 9.7 19.3 0.00 0.00 0.00 42 1013.5
20260506101024 19 120 1.6 16.1 0.00 0.00 0.00 41 1013.6
20260506100524 20 92 9.7 14.5 0.00 0.00 0.00 41 1013.6
20260506100026 19 52 1.6 20.9 0.00 0.00 0.00 40 1013.5
20260506095523 19 89 9.7 20.9 0.00 0.00 0.00 41 1013.6
20260506095023 19 100 8.0 16.1 0.00 0.00 0.00 42 1013.6
20260506094523 18 121 8.0 14.5 0.00 0.00 0.00 42 1013.8
20260506094024 18 135 9.7 16.1 0.00 0.00 0.00 42 1013.8
20260506093523 18 110 9.7 19.3 0.00 0.00 0.00 47 1013.9
20260506093024 18 113 9.7 19.3 0.00 0.00 0.00 50 1014.0
20260506092524 18 68 6.4 16.1 0.00 0.00 0.00 52 1014.2
20260506092025 17 94 9.7 16.1 0.00 0.00 0.00 52 1014.0
20260506091524 17 73 6.4 16.1 0.00 0.00 0.00 51 1014.0
20260506091024 16 124 6.4 14.5 0.00 0.00 0.00 54 1014.0
20260506090523 16 130 4.8 11.3 0.00 0.00 0.00 67 1014.0
20260506090023 15 99 4.8 11.3 0.00 0.00 0.00 68 1014.2
20260506085523 15 135 8.0 11.3 0.00 0.00 0.00 69 1014.2
20260506085023 14 113 8.0 14.5 0.00 0.00 0.00 71 1014.3
20260506084523 14 130 9.7 16.1 0.00 0.00 0.00 72 1014.3
20260506084023 13 120 9.7 16.1 0.00 0.00 0.00 71 1014.3
20260506083523 13 113 11.3 14.5 0.00 0.00 0.00 73 1014.4
20260506083023 13 135 6.4 11.3 0.00 0.00 0.00 72 1014.5
20260506082523 12 120 8.0 11.3 0.00 0.00 0.00 72 1014.5
20260506082022 13 118 6.4 9.7 0.00 0.00 0.00 73 1014.4
20260506081522 12 114 6.4 9.7 0.00 0.00 0.00 73 1014.6
20260506081022 12 99 6.4 9.7 0.00 0.00 0.00 73 1014.6
20260506080523 12 109 6.4 11.3 0.00 0.00 0.00 74 1014.7
20260506073522 11 106 4.8 8.0 0.00 0.00 0.00 74 1015.0
20260506073021 11 121 4.8 6.4 0.00 0.00 0.00 75 1015.0
20260506072521 11 117 3.2 8.0 0.00 0.00 0.00 75 1015.0
20260506072021 11 103 4.8 8.0 0.00 0.00 0.00 75 1015.0
20260506071522 11 141 4.8 8.0 0.00 0.00 0.00 75 1015.2
20260506071021 11 135 4.8 9.7 0.00 0.00 0.00 75 1015.3
20260506070523 11 125 3.2 9.7 0.00 0.00 0.00 74 1015.3
20260506062020 8 154 0.0 0.0 0.00 0.00 0.00 49 1016.0
20260506061520 7 268 0.0 0.0 0.00 0.00 0.00 45 1016.1
20260506061020 7 269 0.0 0.0 0.00 0.00 0.00 41 1016.2
20260506060519 7 268 0.0 0.0 0.00 0.00 0.00 34 1016.3
20260506051018 6 127 1.6 6.4 0.00 0.00 0.00 35 1016.6
20260506050518 6 113 3.2 6.4 0.00 0.00 0.00 39 1016.6
20260506045018 6 266 0.0 1.6 0.00 0.00 0.00 27 1016.9
20260506044517 6 266 0.0 1.6 0.00 0.00 0.00 24 1017.1
20260506044017 5 266 0.0 1.6 0.00 0.00 0.00 22 1017.0
20260506043518 5 266 0.0 1.6 0.00 0.00 0.00 22 1016.9
20260506043017 5 266 0.0 1.6 0.00 0.00 0.00 25 1016.9
20260506042517 5 266 0.0 3.2 0.00 0.00 0.00 30 1016.7
20260506042017 5 265 3.2 3.2 0.00 0.00 0.00 33 1016.7
20260506041517 5 319 0.0 0.0 0.00 0.00 0.00 26 1016.7
20260506041017 5 319 0.0 1.6 0.00 0.00 0.00 17 1016.7
20260506040517 5 320 0.0 1.6 0.00 0.00 0.00 19 1016.7
20260506040017 5 355 0.0 1.6 0.00 0.00 0.00 24 1016.7
20260506035516 5 299 0.0 1.6 0.00 0.00 0.00 31 1016.7
20260506035017 5 283 1.6 1.6 0.00 0.00 0.00 30 1016.6
20260506034516 5 92 0.0 0.0 0.00 0.00 0.00 40 1016.7
20260506034016 5 92 0.0 0.0 0.00 0.00 0.00 47 1016.9
20260506033516 5 92 0.0 3.2 0.00 0.00 0.00 53 1017.0
20260506033016 5 92 1.6 3.2 0.00 0.00 0.00 59 1017.1
20260506032516 6 152 0.0 3.2 0.00 0.00 0.00 52 1017.1
20260506032016 6 45 0.0 0.0 0.00 0.00 0.00 43 1017.3
20260506031515 6 47 0.0 4.8 0.00 0.00 0.00 44 1017.4
20260506031016 6 258 0.0 8.0 0.00 0.00 0.00 47 1017.4
20260506030516 6 285 3.2 8.0 0.00 0.00 0.00 49 1017.2
20260506030015 6 278 6.4 8.0 0.00 0.00 0.00 46 1017.2
20260506025516 6 281 4.8 6.4 0.00 0.00 0.00 52 1017.3
20260506025016 6 286 3.2 4.8 0.00 0.00 0.00 64 1017.4
20260506024517 6 86 0.0 3.2 0.00 0.00 0.00 52 1017.3
20260506024015 6 87 0.0 3.2 0.00 0.00 0.00 50 1017.3
20260506023515 6 71 0.0 3.2 0.00 0.00 0.00 62 1017.5
20260506023015 6 120 0.0 3.2 0.00 0.00 0.00 56 1017.4
20260506022515 6 321 0.0 4.8 0.00 0.00 0.00 55 1017.6
20260506022014 6 278 0.0 4.8 0.00 0.00 0.00 61 1017.8
20260506021514 6 269 0.0 3.2 0.00 0.00 0.00 59 1017.6
20260506021014 6 334 0.0 1.6 0.00 0.00 0.00 57 1017.4
20260506020514 6 289 0.0 1.6 0.00 0.00 0.00 57 1017.3
20260506020014 6 289 0.0 1.6 0.00 0.00 0.00 61 1017.3
20260506015515 6 290 0.0 1.6 0.00 0.00 0.00 67 1017.2
20260506015014 6 319 0.0 0.0 0.00 0.00 0.00 65 1017.3
20260506014514 6 319 0.0 1.6 0.00 0.00 0.00 64 1017.3
20260506014012 6 313 0.0 3.2 0.00 0.00 0.00 64 1017.3
20260506013513 6 295 1.6 3.2 0.00 0.00 0.00 63 1017.5
20260506013012 6 295 1.6 3.2 0.00 0.00 0.00 64 1017.5
20260506012509 6 293 1.6 1.6 0.00 0.00 0.00 66 1017.5
20260506012007 6 293 0.0 1.6 0.00 0.00 0.00 66 1017.4
20260506011506 6 118 0.0 0.0 0.00 0.00 0.00 68 1017.3
20260506011006 6 120 0.0 0.0 0.00 0.00 0.00 68 1017.4
20260506010506 6 120 0.0 0.0 0.00 0.00 0.00 67 1017.3
20260506010007 6 120 0.0 0.0 0.00 0.00 0.00 68 1017.2
20260506005507 6 120 0.0 0.0 0.00 0.00 0.00 69 1017.2
20260506005006 6 120 0.0 3.2 0.00 0.00 0.00 71 1017.1
20260506004506 6 120 0.0 3.2 0.00 0.00 0.00 74 1017.1
20260506004007 7 85 0.0 1.6 0.00 0.00 0.00 75 1017.1
20260506003506 7 127 0.0 3.2 0.00 0.00 0.00 74 1017.1
20260506003006 7 327 0.0 3.2 0.00 0.00 0.00 74 1017.1
20260506002506 7 293 1.6 3.2 0.00 0.00 0.00 74 1017.1
20260506002007 7 290 0.0 3.2 0.00 0.00 0.00 74 1017.1
20260506001507 7 300 0.0 3.2 0.00 0.00 0.00 74 1017.1
20260506001007 7 296 0.0 3.2 0.00 0.00 0.00 74 1017.1
20260506000506 7 14 0.0 3.2 0.00 0.00 0.00 73 1017.2
20260506000007 7 6 0.0 3.2 0.00 0.00 0.00 74 1017.2
20260505235506 7 283 0.0 4.8 0.00 0.00 0.00 74 1017.1
20260505235006 7 309 3.2 4.8 0.00 0.00 0.00 75 1017.3
20260505234506 7 296 0.0 1.6 0.00 0.00 0.00 75 1017.3
20260505234006 7 310 0.0 1.6 0.00 0.00 0.00 75 1017.3
20260505233509 7 24 0.0 4.8 0.00 0.00 0.00 75 1017.4
20260505233006 7 116 0.0 4.8 0.00 0.00 0.00 75 1017.4
20260505232506 8 97 1.6 4.8 0.00 0.00 0.00 74 1017.3
20260505232007 8 69 0.0 1.6 0.00 0.00 0.00 74 1017.2
20260505231506 8 310 0.0 1.6 0.00 0.00 0.00 75 1017.2
20260505231006 8 313 0.0 1.6 0.00 0.00 0.00 75 1017.3
20260505230507 8 300 0.0 4.8 0.00 0.00 0.00 75 1017.2
20260505230007 8 298 1.6 4.8 0.00 0.00 0.00 75 1017.2
20260505225506 8 292 0.0 4.8 0.00 0.00 0.00 75 1017.2
20260505225006 8 295 1.6 3.2 0.00 0.00 0.00 75 1017.1
20260505224506 8 288 0.0 1.6 0.00 0.00 0.00 75 1017.1
20260505224006 8 292 0.0 1.6 0.00 0.00 0.00 74 1017.1
20260505223507 8 316 0.0 0.0 0.00 0.00 0.00 74 1017.0
20260505223006 8 316 0.0 0.0 0.00 0.00 0.00 74 1017.0
20260505222506 8 278 0.0 0.0 0.00 0.00 0.00 74 1017.0
20260505222006 9 307 0.0 3.2 0.00 0.00 0.00 74 1017.0
20260505221506 8 298 0.0 6.4 0.00 0.00 0.00 75 1017.0
20260505221007 8 299 0.0 6.4 0.00 0.00 0.00 75 1016.9
20260505220507 8 292 1.6 4.8 0.00 0.00 0.00 74 1016.9
20260505220008 9 288 3.2 4.8 0.00 0.00 0.00 73 1016.9
20260505215506 9 274 0.0 6.4 0.00 0.00 0.00 73 1016.7
20260505215007 9 289 1.6 9.7 0.00 0.00 0.00 73 1016.7
20260505214506 9 286 6.4 9.7 0.00 0.00 0.00 73 1016.7
20260505214006 9 278 0.0 6.4 0.00 0.00 0.00 73 1016.6
20260505213506 9 314 3.2 6.4 0.00 0.00 0.00 73 1016.9
20260505213007 9 336 0.0 3.2 0.00 0.00 0.00 73 1016.9
20260505212506 9 327 0.0 3.2 0.00 0.00 0.00 72 1016.7
20260505212006 10 262 0.0 3.2 0.00 0.00 0.00 72 1016.6
20260505211505 10 348 0.0 4.8 0.00 0.00 0.00 72 1016.5
20260505211006 10 331 3.2 4.8 0.00 0.00 0.00 71 1016.5
20260505210507 10 6 0.0 4.8 0.00 0.00 0.00 72 1016.5
20260505210007 10 23 3.2 4.8 0.00 0.00 0.00 72 1016.6
20260505205506 10 213 0.0 0.0 0.00 0.00 0.00 70 1016.5
20260505205006 10 210 0.0 3.2 0.00 0.00 0.00 69 1016.5
20260505204506 11 165 0.0 3.2 0.00 0.00 0.00 68 1016.4
20260505204007 11 97 0.0 8.0 0.00 0.00 0.00 67 1016.3
20260505203506 11 296 1.6 8.0 0.00 0.00 0.00 68 1016.2
20260505203006 11 285 1.6 3.2 0.00 0.00 0.00 67 1016.1
20260505202508 11 313 0.0 6.4 0.00 0.00 0.00 66 1016.1
20260505202006 11 0 3.2 6.4 0.00 0.00 0.00 67 1016.1
20260505201507 11 292 0.0 6.4 0.00 0.00 0.00 66 1016.0
20260505201006 12 310 1.6 6.4 0.00 0.00 0.00 66 1015.9
20260505200507 11 309 1.6 6.4 0.00 0.00 0.00 67 1015.9
20260505200007 11 299 1.6 4.8 0.00 0.00 0.00 68 1015.9
20260505195507 11 300 0.0 6.4 0.00 0.00 0.00 68 1015.8
20260505195007 11 295 4.8 6.4 0.00 0.00 0.00 68 1015.8
20260505194506 11 303 1.6 6.4 0.00 0.00 0.00 69 1015.7
20260505194007 11 265 1.6 4.8 0.00 0.00 0.00 66 1015.6
20260505193507 12 314 0.0 4.8 0.00 0.00 0.00 66 1015.4
20260505193007 12 307 1.6 4.8 0.00 0.00 0.00 64 1015.3
20260505192508 12 312 0.0 1.6 0.00 0.00 0.00 63 1015.2
20260505192006 13 298 0.0 6.4 0.00 0.00 0.00 62 1015.1
20260505191506 13 316 1.6 8.0 0.00 0.00 0.00 62 1015.2
20260505191005 13 10 1.6 8.0 0.00 0.00 0.00 63 1015.1
20260505190506 13 286 4.8 8.0 0.00 0.00 0.00 62 1015.0
20260505190006 13 314 0.0 11.3 0.00 0.00 0.00 62 1014.9
20260505185506 13 306 3.2 11.3 0.00 0.00 0.00 62 1015.0
20260505185005 13 290 3.2 6.4 0.00 0.00 0.00 60 1014.8
20260505184505 13 314 0.0 4.8 0.00 0.00 0.00 60 1014.8
20260505184006 13 309 1.6 4.8 0.00 0.00 0.00 61 1014.7
20260505183506 13 6 1.6 8.0 0.00 0.00 0.00 62 1014.6
20260505183005 13 283 3.2 8.0 0.00 0.00 0.00 60 1014.5
20260505182505 14 276 1.6 8.0 0.00 0.00 0.00 57 1014.7
20260505182005 14 302 0.0 6.4 0.00 0.00 0.00 59 1014.5
20260505181504 15 296 1.6 6.4 0.00 0.00 0.00 56 1014.4
20260505181005 15 307 1.6 4.8 0.00 0.00 0.00 55 1014.4
20260505180505 15 309 1.6 4.8 0.00 0.00 0.00 54 1014.3
20260505180007 16 305 1.6 4.8 0.00 0.00 0.00 53 1014.3
20260505175504 16 302 3.2 4.8 0.00 0.00 0.00 53 1014.3
20260505175004 16 302 1.6 4.8 0.00 0.00 0.00 52 1014.3
20260505174504 16 329 0.0 4.8 0.00 0.00 0.00 51 1014.3
20260505174004 17 274 1.6 4.8 0.00 0.00 0.00 50 1014.2
20260505173503 17 299 0.0 6.4 0.00 0.00 0.00 50 1014.0
20260505173003 17 34 1.6 6.4 0.00 0.00 0.00 49 1014.2
20260505172504 17 324 1.6 6.4 0.00 0.00 0.00 49 1014.3
20260505172003 18 300 3.2 6.4 0.00 0.00 0.00 46 1014.0
20260505171504 18 305 3.2 6.4 0.00 0.00 0.00 46 1014.0
20260505171004 19 299 1.6 6.4 0.00 0.00 0.00 46 1014.3
20260505170503 19 327 0.0 9.7 0.00 0.00 0.00 45 1014.2
20260505170003 18 97 1.6 14.5 0.00 0.00 0.00 45 1014.2
20260505165503 18 97 3.2 14.5 0.00 0.00 0.00 45 1014.2
20260505165003 18 106 6.4 11.3 0.00 0.00 0.00 46 1014.3
20260505164502 18 134 9.7 11.3 0.00 0.00 0.00 43 1014.2
20260505164003 18 151 6.4 9.7 0.00 0.00 0.00 44 1014.3
20260505163503 19 114 3.2 11.3 0.00 0.00 0.00 45 1014.3
20260505163003 18 82 8.0 14.5 0.00 0.00 0.00 46 1014.4
20260505162502 18 113 8.0 14.5 0.00 0.00 0.00 46 1014.5
20260505162002 18 107 6.4 14.5 0.00 0.00 0.00 47 1014.5
20260505161502 18 135 6.4 14.5 0.00 0.00 0.00 47 1014.7
20260505161003 18 130 9.7 14.5 0.00 0.00 0.00 45 1014.7
20260505160501 18 124 6.4 17.7 0.00 0.00 0.00 46 1014.8
20260505153002 18 113 8.0 11.3 0.00 0.00 0.00 47 1014.8
20260505152501 18 71 6.4 8.0 0.00 0.00 0.00 46 1014.9
20260505152001 18 241 0.0 4.8 0.00 0.00 0.00 44 1014.9
20260505151500 18 295 0.0 9.7 0.00 0.00 0.00 44 1015.0
20260505151000 18 6 1.6 14.5 0.00 0.00 0.00 42 1014.9
20260505150501 18 282 6.4 16.1 0.00 0.00 0.00 43 1014.9
20260505140500 20 199 1.6 9.7 0.00 0.00 0.00 45 1014.4
20260505124958 21 228 3.2 8.0 0.00 0.00 0.00 40 1014.6
20260505124458 20 226 0.0 8.0 0.00 0.00 0.00 40 1014.5
20260505123958 20 100 4.8 17.7 0.00 0.00 0.00 40 1014.4
20260505123458 20 114 11.3 17.7 0.00 0.00 0.00 40 1014.6
20260505122958 20 75 8.0 14.5 0.00 0.00 0.00 39 1014.5
20260505122458 21 121 8.0 11.3 0.00 0.00 0.00 42 1014.4
20260505121957 21 111 6.4 16.1 0.00 0.00 0.00 38 1014.5
20260505121457 21 168 11.3 16.1 0.00 0.00 0.00 38 1014.5
20260505120957 21 118 1.6 16.1 0.00 0.00 0.00 35 1014.5
20260505120457 21 182 3.2 16.1 0.00 0.00 0.00 42 1014.6
20260505115957 21 94 11.3 16.1 0.00 0.00 0.00 38 1014.4
20260505115457 21 128 9.7 14.5 0.00 0.00 0.00 37 1014.5
20260505114957 21 114 8.0 16.1 0.00 0.00 0.00 35 1014.5
20260505114455 21 140 8.0 20.9 0.00 0.00 0.00 36 1014.6
20260505113955 22 127 9.7 20.9 0.00 0.00 0.00 34 1014.6
20260505113455 22 82 9.7 19.3 0.00 0.00 0.00 36 1014.5
20260505112956 22 99 9.7 17.7 0.00 0.00 0.00 35 1014.5